Location: Medlow Airstrip Trail, Medlow Bath NSW 2780, Australia
(33.6682°S, 150.3233°E)
Time: 21:32:41
(UTC+11:00)

Explorer 11/Cluster Stage 4 - Pass Details

Date: 30 September 2019
Orbit: 467 x 1259 km, 28.8° (Epoch: 13 October)

Event Time Altitude Azimuth Distance (km) Brightness Sun altitude
Rises 09:57:15 0° 274° (W) 2,780 9.1 49.4°
Reaches altitude 10° 09:59:32 10° 285° (WNW) 1,977 8.6 49.8°
Maximum altitude 10:03:39 32° 348° (NNW) 1,195 8.3 50.4°
Drops below altitude 10° 10:08:37 10° 49° (NE) 2,412 10.0 51.1°
Sets 10:11:41 0° 58° (ENE) 3,500 10.5 51.5°
